Flag for U.S.A. Weather past 2 weeks in Stroudsburg, Pennsylvania, U.S.A.

Now
46 °F

Light rain. Mostly cloudy.


Feels Like: 38 °F
Forecast: 47 / 59 °F
Wind: 20 mph from Northwest

Location: Pocono Mountains Municipal Airport

Current Time: Apr 21, 2015 at 8:26:27 AM

Latest Report: Apr 21, 2015 at 7:53 AM


Visibility: 9 mi

Pressure: 29.65 "Hg

Humidity: 83%

Dew point: 41 °F

Location of StroudsburgLocation

Historic Weather in Stroudsburg — Graph

°F

Stroudsburg temperature yesterday

Maximum temperature yesterday: 53 °F (at 4:53 PM)
Minimum temperature yesterday: 38 °F (at 1:53 AM)
Average temperature yesterday: 47 °F

Past Weeks' High & Low Weather Summary

 TemperatureHumidityPressure
High74 °F (Apr 18, 4:53 PM)100% (Apr 10, 4:00 AM)30.46 "Hg (Apr 10, 4:00 AM)
Low30 °F (Apr 6, 6:53 AM)16% (Apr 15, 1:53 PM)29.55 "Hg (Apr 21, 2:53 AM)
Average48 °F62%30.11 "Hg
* Reported Apr 6 6:53 AM — Apr 21 6:53 AM, Stroudsburg, Weather by CustomWeather, © 2015

Note: Actual official high and low records may vary slightly from our data, if they occured in-between our weather recording intervals... More about our weather records

Advertising

Stroudsburg weather history for previous 24 hours

 ConditionsComfort  
Time TempWeatherWind HumidityBarometerVisibility
6:53 AM
Tue, Apr 21
48 °FOvercast.14 mph89%29.61 "Hg10 mi
5:53 AM48 °FLight rain. Fog.10 mph93%29.60 "Hg5 mi
4:53 AM50 °FFog.3 mph96%29.57 "Hg0 mi
4:00 AM50 °FFog.6 mph96%29.56 "Hg0 mi
2:53 AM51 °FOvercast.5 mph89%29.55 "Hg10 mi
1:53 AM52 °FRain. Fog.6 mph89%29.58 "Hg6 mi
12:53 AM51 °FLight rain. Fog.5 mph92%29.59 "Hg6 mi
12:04 AM50 °FStrong thunderstorms. Fog.24 mph93%29.62 "Hg1 mi
11:58 PM
Mon, Apr 20
53 °FStrong thunderstorms. Fog.39 mph93%29.59 "Hg1 mi
10:53 PM53 °FLight rain. Fog.9 mph93%29.58 "Hg0 mi
9:53 PM52 °FFog.8 mph97%29.61 "Hg0 mi
8:53 PM52 °FFog.10 mph97%29.62 "Hg0 mi
7:53 PM52 °FFog.10 mph97%29.61 "Hg0 mi
7:00 PM53 °FFog.9 mph93%29.62 "Hg0 mi
5:53 PM53 °FFog.9 mph93%29.65 "Hg0 mi
4:53 PM53 °FFog.9 mph93%29.66 "Hg0 mi
3:53 PM52 °FLow clouds.9 mph97%29.67 "HgN/A
3:02 PM52 °FFog.9 mph97%29.66 "Hg1 mi
2:53 PM52 °FFog.10 mph93%29.69 "Hg2 mi
1:53 PM51 °FLight rain. Low clouds.12 mph92%29.70 "HgN/A
12:53 PM50 °FLight rain. Fog.12 mph96%29.71 "Hg2 mi
11:53 AM48 °FLight rain. Fog.13 mph96%29.72 "Hg1 mi
10:53 AM46 °FLight rain. Fog.14 mph96%29.75 "Hg1 mi
9:53 AM45 °FRain. Fog.12 mph97%29.78 "Hg2 mi
8:53 AM44 °FRain. Fog.16 mph93%29.81 "Hg2 mi
8:03 AM44 °FLight rain. Fog.21 mph93%29.80 "Hg1 mi
Weather by CustomWeather, © 2015

See weather overviewHow to use our weather pages